7 * 24
多渠道服务支持
GEESAT-1 07 是一颗由学生团队设计、建造和运营的教育型小卫星,旨在促进航天工程教育与实践。该卫星主要用于技术验证、遥感和通信实验,搭载了多种有效载荷,以支持科学研究和教学应用。其发射为学生提供了宝贵的航天器开发与在轨操作经验,推动了航天教育的发展。
中国
(CN)
| 数据来源 | 国际轨道数据 |
| 星历时间: | 2025-12-14T14:54:09+0800 1天前 查看轨道信息 |
| 半长轴: | 6953.328km |
| 偏心率: | 0.0002414 |
| 轨道倾角: | 49.990° |
| 近地点辐角 | 65.571° |
| 升交点赤经 | 339.425° |
| 平近点角 | 294.549° |
| 近地点: | 573.514km |
| 远地点: | 576.872km |
| 周期: | 96.172分钟 |
| 每日圈数: | 14.97317 |